When you browse on this site, cookies collect data to enhance your experience and personalize the content and advertising you see.
Visit our Privacy Policy to learn more. By continuing to use the site, you agree to this use of cookies and data.

Hourly Weather Glasgow

Today, 10 July, Friday

Time Temperature Precipitation Wind Pressure Humidity
00:00 +9°C° 0.1 mm 2 mps 759 mmHg 92%
01:00 +9°C° 0 mm 2 mps 759 mmHg 92%
02:00 +9°C° 0 mm 2 mps 759 mmHg 92%
03:00 +9°C° 0 mm 2 mps 759 mmHg 92%
04:00 +9°C° 0 mm 3 mps 759 mmHg 91%
05:00 +10°C° 0 mm 4 mps 759 mmHg 90%
06:00 +10°C° 0 mm 4 mps 759 mmHg 89%
07:00 +12°C° 0 mm 4 mps 759 mmHg 81%
08:00 +13°C° 0 mm 4 mps 760 mmHg 73%
09:00 +14°C° 0 mm 4 mps 760 mmHg 65%
10:00 +14°C° 0.1 mm 4 mps 760 mmHg 64%
11:00 +16°C° 0.1 mm 3 mps 760 mmHg 63%
12:00 +16°C° 0.1 mm 3 mps 760 mmHg 62%
13:00 +16°C° 0.3 mm 3 mps 760 mmHg 67%
14:00 +14°C° 0.3 mm 3 mps 760 mmHg 71%
15:00 +14°C° 0.3 mm 3 mps 760 mmHg 75%
16:00 +14°C° 0.3 mm 3 mps 760 mmHg 77%
17:00 +14°C° 0.3 mm 3 mps 760 mmHg 78%
18:00 +14°C° 0.3 mm 3 mps 761 mmHg 79%
19:00 +12°C° 0.2 mm 3 mps 761 mmHg 83%
20:00 +12°C° 0.2 mm 2 mps 762 mmHg 86%
21:00 +10°C° 0.2 mm 2 mps 762 mmHg 90%
22:00 +10°C° 0 mm 2 mps 762 mmHg 91%
23:00 +9°C° 0 mm 3 mps 763 mmHg 92%

Tomorrow, 11 July, Saturday

Time Temperature Precipitation Wind Pressure Humidity
00:00 +7°C° 0 mm 4 mps 763 mmHg 92%
01:00 +7°C° 0 mm 4 mps 763 mmHg 93%
02:00 +7°C° 0 mm 5 mps 763 mmHg 93%
03:00 +7°C° 0 mm 5 mps 763 mmHg 93%
04:00 +8°C° 0 mm 5 mps 763 mmHg 91%
05:00 +8°C° 0 mm 5 mps 763 mmHg 88%
06:00 +9°C° 0 mm 5 mps 764 mmHg 86%
07:00 +12°C° 0 mm 5 mps 764 mmHg 80%
08:00 +13°C° 0 mm 5 mps 764 mmHg 73%
09:00 +14°C° 0 mm 4 mps 764 mmHg 66%
10:00 +14°C° 0.1 mm 4 mps 765 mmHg 66%
11:00 +15°C° 0.1 mm 4 mps 765 mmHg 66%
12:00 +16°C° 0.1 mm 3 mps 765 mmHg 67%
13:00 +16°C° 0.1 mm 3 mps 765 mmHg 65%
14:00 +17°C° 0.1 mm 3 mps 765 mmHg 64%
15:00 +17°C° 0.1 mm 3 mps 766 mmHg 63%
16:00 +17°C° 0.1 mm 3 mps 765 mmHg 65%
17:00 +17°C° 0.1 mm 3 mps 765 mmHg 67%
18:00 +17°C° 0.1 mm 2 mps 765 mmHg 69%
19:00 +15°C° 0 mm 2 mps 766 mmHg 73%
20:00 +14°C° 0 mm 2 mps 766 mmHg 78%
21:00 +12°C° 0 mm 2 mps 767 mmHg 82%
22:00 +10°C° 0 mm 2 mps 767 mmHg 84%
23:00 +10°C° 0 mm 3 mps 767 mmHg 85%

Day after tomorrow, 12 July, Sunday

Time Temperature Precipitation Wind Pressure Humidity
00:00 +9°C° 0 mm 3 mps 767 mmHg 87%
01:00 +8°C° 0 mm 3 mps 767 mmHg 87%
02:00 +8°C° 0 mm 2 mps 767 mmHg 87%
03:00 +8°C° 0 mm 2 mps 767 mmHg 88%
04:00 +9°C° 0 mm 2 mps 767 mmHg 85%
05:00 +10°C° 0 mm 2 mps 767 mmHg 83%
06:00 +12°C° 0 mm 2 mps 767 mmHg 81%
07:00 +13°C° 0 mm 2 mps 767 mmHg 76%
08:00 +15°C° 0 mm 2 mps 767 mmHg 72%
09:00 +16°C° 0 mm 3 mps 767 mmHg 67%
10:00 +17°C° 0 mm 3 mps 767 mmHg 66%
11:00 +17°C° 0 mm 4 mps 767 mmHg 65%
12:00 +18°C° 0 mm 4 mps 767 mmHg 64%
13:00 +17°C° 0 mm 5 mps 766 mmHg 64%
14:00 +17°C° 0 mm 5 mps 766 mmHg 64%
15:00 +19°C° 0 mm 5 mps 766 mmHg 64%
16:00 +19°C° 0 mm 6 mps 765 mmHg 66%
17:00 +17°C° 0 mm 6 mps 765 mmHg 69%
18:00 +17°C° 0 mm 6 mps 765 mmHg 71%
19:00 +16°C° 0 mm 6 mps 764 mmHg 68%
20:00 +15°C° 0 mm 6 mps 764 mmHg 66%
21:00 +14°C° 0 mm 6 mps 764 mmHg 63%
22:00 +14°C° 0.1 mm 6 mps 764 mmHg 70%
23:00 +13°C° 0.1 mm 6 mps 763 mmHg 77%

13 July, Monday

Time Temperature Precipitation Wind Pressure Humidity
00:00 +11°C° 0.1 mm 6 mps 763 mmHg 84%
01:00 +11°C° 0.3 mm 6 mps 762 mmHg 87%
02:00 +11°C° 0.3 mm 6 mps 762 mmHg 91%
03:00 +12°C° 0.3 mm 5 mps 762 mmHg 94%
04:00 +12°C° 0.4 mm 5 mps 761 mmHg 94%
05:00 +12°C° 0.4 mm 5 mps 761 mmHg 95%
06:00 +13°C° 0.4 mm 5 mps 761 mmHg 95%
07:00 +14°C° 0.1 mm 5 mps 761 mmHg 88%
08:00 +16°C° 0.1 mm 5 mps 761 mmHg 81%
09:00 +19°C° 0.1 mm 5 mps 761 mmHg 75%
10:00 +19°C° 0.1 mm 5 mps 760 mmHg 73%
11:00 +19°C° 0.1 mm 5 mps 760 mmHg 70%
12:00 +19°C° 0.1 mm 5 mps 760 mmHg 68%
13:00 +17°C° 0.2 mm 5 mps 760 mmHg 72%
14:00 +18°C° 0.2 mm 4 mps 760 mmHg 76%
15:00 +17°C° 0.2 mm 4 mps 760 mmHg 80%
16:00 +17°C° 0.5 mm 4 mps 760 mmHg 81%
17:00 +17°C° 0.5 mm 4 mps 760 mmHg 82%
18:00 +17°C° 0.5 mm 4 mps 760 mmHg 83%
19:00 +14°C° 0.1 mm 3 mps 760 mmHg 85%
20:00 +13°C° 0.1 mm 3 mps 760 mmHg 88%
21:00 +12°C° 0.1 mm 2 mps 760 mmHg 90%
22:00 +12°C° 0 mm 2 mps 760 mmHg 91%
23:00 +10°C° 0 mm 2 mps 761 mmHg 91%

14 July, Tuesday

Time Temperature Precipitation Wind Pressure Humidity
00:00 +10°C° 0 mm 2 mps 761 mmHg 91%
01:00 +10°C° 0 mm 2 mps 760 mmHg 91%
02:00 +10°C° 0 mm 2 mps 760 mmHg 90%
03:00 +10°C° 0 mm 2 mps 760 mmHg 90%
04:00 +10°C° 0 mm 2 mps 760 mmHg 88%
05:00 +12°C° 0 mm 2 mps 760 mmHg 87%
06:00 +13°C° 0 mm 2 mps 760 mmHg 86%
07:00 +14°C° 0.1 mm 2 mps 760 mmHg 83%
08:00 +13°C° 0.1 mm 3 mps 759 mmHg 79%
09:00 +14°C° 0.1 mm 4 mps 759 mmHg 76%
10:00 +15°C° 0 mm 4 mps 759 mmHg 73%
11:00 +15°C° 0 mm 4 mps 759 mmHg 71%
12:00 +17°C° 0 mm 4 mps 758 mmHg 68%
13:00 +17°C° 0 mm 4 mps 758 mmHg 70%
14:00 +17°C° 0 mm 4 mps 758 mmHg 72%
15:00 +16°C° 0 mm 5 mps 757 mmHg 73%
16:00 +15°C° 0.3 mm 5 mps 757 mmHg 80%
17:00 +14°C° 0.3 mm 5 mps 757 mmHg 87%
18:00 +13°C° 0.3 mm 5 mps 756 mmHg 94%
19:00 +13°C° 0.1 mm 5 mps 756 mmHg 95%
20:00 +12°C° 0.1 mm 5 mps 756 mmHg 96%
21:00 +12°C° 0.1 mm 4 mps 755 mmHg 97%
22:00 +12°C° 0.1 mm 5 mps 755 mmHg 97%
23:00 +12°C° 0.1 mm 5 mps 755 mmHg 97%

15 July, Wednesday

Time Temperature Precipitation Wind Pressure Humidity
00:00 +12°C° 0.1 mm 5 mps 754 mmHg 97%
01:00 +12°C° 0.1 mm 5 mps 754 mmHg 97%
02:00 +12°C° 0.1 mm 4 mps 753 mmHg 97%
03:00 +12°C° 0.1 mm 4 mps 753 mmHg 97%
04:00 +12°C° 0.1 mm 4 mps 753 mmHg 97%
05:00 +12°C° 0.1 mm 4 mps 753 mmHg 96%
06:00 +12°C° 0.1 mm 4 mps 752 mmHg 96%
07:00 +13°C° 0 mm 4 mps 752 mmHg 93%
08:00 +14°C° 0 mm 3 mps 752 mmHg 90%
09:00 +16°C° 0 mm 3 mps 752 mmHg 87%
10:00 +17°C° 0 mm 2 mps 752 mmHg 83%
11:00 +19°C° 0 mm 2 mps 752 mmHg 79%
12:00 +20°C° 0 mm 2 mps 752 mmHg 75%
13:00 +20°C° 0.1 mm 2 mps 752 mmHg 78%
14:00 +19°C° 0.1 mm 3 mps 752 mmHg 81%
15:00 +19°C° 0.1 mm 3 mps 752 mmHg 85%
16:00 +18°C° 0.1 mm 3 mps 751 mmHg 87%
17:00 +17°C° 0.1 mm 3 mps 751 mmHg 89%
18:00 +17°C° 0.1 mm 2 mps 751 mmHg 91%
19:00 +16°C° 0 mm 2 mps 751 mmHg 91%
20:00 +16°C° 0 mm 2 mps 751 mmHg 91%
21:00 +15°C° 0 mm 2 mps 751 mmHg 91%
22:00 +15°C° 0 mm 2 mps 751 mmHg 91%
23:00 +14°C° 0 mm 3 mps 751 mmHg 91%
Show more